2023/08/14 00:00:00, 0.0,21.7
2023/08/14 00:10:00, 0.0,21.9
2023/08/14 00:20:00, 0.0,22.2
2023/08/14 00:30:00, 0.0,21.5
2023/08/14 00:40:00, 0.0,21.7
2023/08/14 00:50:00, 0.0,21.6
2023/08/14 01:00:00, 0.0,21.4
2023/08/14 01:10:00, 0.0,21.3
2023/08/14 01:20:00, 0.0,21.4
2023/08/14 01:30:00, 0.0,21.2
2023/08/14 01:40:00, 0.0,21.3
2023/08/14 01:50:00, 0.0,21.2
2023/08/14 02:00:00, 0.0,21.0
2023/08/14 02:10:00, 0.0,21.0
2023/08/14 02:20:00, 0.0,21.1
2023/08/14 02:30:00, 0.0,21.2
2023/08/14 02:40:00, 0.0,21.0
2023/08/14 02:50:00, 0.0,21.2
2023/08/14 03:00:00, 0.0,20.9
2023/08/14 03:10:00, 0.0,20.9
2023/08/14 03:20:00, 0.0,21.7
2023/08/14 03:30:00, 0.0,21.2
2023/08/14 03:40:00, 0.0,21.2
2023/08/14 03:50:00, 0.0,21.3
2023/08/14 04:00:00, 0.0,21.1
2023/08/14 04:10:00, 0.0,20.9
2023/08/14 04:20:00, 0.0,21.0
2023/08/14 04:30:00, 0.0,21.1
2023/08/14 04:40:00, 0.0,21.0
2023/08/14 04:50:00, 0.0,20.8
2023/08/14 05:00:00, 0.0,20.8
2023/08/14 05:10:00, 0.0,21.0
2023/08/14 05:20:00, 0.0,21.1
2023/08/14 05:30:00, 0.0,21.4
2023/08/14 05:40:00, 0.0,21.1
2023/08/14 05:50:00, 0.0,21.3
2023/08/14 06:00:00, 0.0,21.5
2023/08/14 06:10:00, 0.0,21.7
2023/08/14 06:20:00, 0.0,21.9
2023/08/14 06:30:00, 0.0,21.9
2023/08/14 06:40:00, 0.0,22.0
2023/08/14 06:50:00, 0.0,22.3
2023/08/14 07:00:00, 0.0,22.3
2023/08/14 07:10:00, 0.0,22.0
2023/08/14 07:20:00, 0.0,22.2
2023/08/14 07:30:00, 0.0,22.6
2023/08/14 07:40:00, 0.0,22.7
2023/08/14 07:50:00, 0.0,22.3
